Starlink 31581

operational
NORAD ID: 59474 Int'l Des: 2024-068 Owner: SPXS Country: US Constellation: starlink
LEOCIRCULAR

关于 Starlink 31581

正在加载描述...

实时位置

正在加载3D地球...

即将过境

高度历史

Altitude vs Time

uPlot chart will show altitude changes over time

两行轨道根数

1 59474U 24068V 25350.70653000 .00004991 00000-0 19076-3 0 9994
2 59474 42.9987 136.0437 0001708 270.4362 89.6294 15.27581443 95916
Epoch: Dec 16, 2025 • Age: 20 hours

当前状态

高度 482.5 km
速度 7.63 km/s
星下点 7.81°N, 28.8°E
发射日期 Apr 10, 2024
运行时间 1.6 years
类型 internet

技术详情

分类 Payload
质量 730.00 kg
干质量 700.00 kg
总质量 730.00 kg
长度 0.30 m
直径 4.10 m
跨度 29.00 m
形状 Box + pan
制造商 SPXS
平台类型 Starlink V2M
阶段状态 In Orbit
所有者/国家 SPXS/US

大型星座

Loading constellations...